This is the latest recevied weather packets stored in our database for station/object KB1ZFK. If no packets are shown the sender has not sent any weather packets the latest 10 day(s).
| Time | Temp. | Humidity | Pressure | Rain* | Wind** | Luminosity | Snow |
|---|---|---|---|---|---|---|---|
| 1777851555 | 6.67° C | 64% | 1007.6 hPa | 0 mm | - | 3 W/m² | - |
| 1777851251 | 6.67° C | 63% | 1007.6 hPa | 0 mm | - | 5 W/m² | - |
| 1777850948 | 7.22° C | 61% | 1007.5 hPa | 0 mm | - | 6 W/m² | - |
| 1777850645 | 7.22° C | 59% | 1007.4 hPa | 0 mm | - | 10 W/m² | - |
| 1777850343 | 7.78° C | 57% | 1007.4 hPa | 0 mm | - | 11 W/m² | - |
| 1777850040 | 7.78° C | 58% | 1007.4 hPa | 0 mm | - | 12 W/m² | - |
| 1777849735 | 7.78° C | 58% | 1007.6 hPa | 0 mm | - | 12 W/m² | - |
| 1777849432 | 8.33° C | 55% | 1007.3 hPa | 0 mm | - | 17 W/m² | - |
| 1777849130 | 8.33° C | 51% | 1007.4 hPa | 0 mm | - | 21 W/m² | - |
| 1777848826 | 8.33° C | 53% | 1007.3 hPa | 0 mm | - | 26 W/m² | - |
| 1777848522 | 8.33° C | 52% | 1007.2 hPa | 0 mm | - | 28 W/m² | - |
| 1777848220 | 8.89° C | 52% | 1007.2 hPa | 0 mm | - | 25 W/m² | - |
| 1777847917 | 8.89° C | 48% | 1007.3 hPa | 0 mm | - | 30 W/m² | - |
| 1777847615 | 8.89° C | 50% | 1007 hPa | 0 mm | - | 34 W/m² | - |
| 1777847310 | 8.89° C | 50% | 1006.8 hPa | 0 mm | - | 32 W/m² | - |
| 1777847009 | 8.89° C | 51% | 1007.2 hPa | 0 mm | - | 53 W/m² | - |
| 1777846707 | 8.89° C | 50% | 1007 hPa | 0 mm | - | 47 W/m² | - |
| 1777846406 | 8.89° C | 52% | 1007 hPa | 0 mm | - | 58 W/m² | - |
| 1777846101 | 8.89° C | 50% | 1006.9 hPa | 0 mm | - | 62 W/m² | - |
| 1777845798 | 8.89° C | 48% | 1006.8 hPa | 0 mm | - | 55 W/m² | - |
| 1777845495 | 8.89° C | 48% | 1006.8 hPa | 0 mm | - | 52 W/m² | - |
| 1777845192 | 9.44° C | 48% | 1006.6 hPa | 0 mm | - | 54 W/m² | - |
| 1777844890 | 9.44° C | 49% | 1006.6 hPa | 0 mm | - | 70 W/m² | - |
| 1777844587 | 9.44° C | 45% | 1006.8 hPa | 0 mm | - | 69 W/m² | - |
| 1777844284 | 9.44° C | 46% | 1006.6 hPa | 0 mm | - | 77 W/m² | - |
* Rain latest hour (hover to see other rain measurements)
** Current wind speed in m/s (hover to see current wind gust speed)